Home   Weather   Orlando   Past weeks

Flag for USA Past Weather in Orlando, Florida, USA — Yesterday and Last 2 Weeks

Now
67 °F

Partly sunny.


Feels Like: 67 °F
Forecast: 51 / 72 °F
Wind: 10 mph from Northeast

Location: Orlando Executive Airport

Current Time: Dec 10, 2016 at 5:29:34 pm

Latest Report: Dec 10, 2016 at 4:53 pm


Visibility: 10 mi

Pressure: 30.32 "Hg

Humidity: 59%

Dew Point: 52 °F

Location of OrlandoLocation

Past Weather in Orlando — Graph

°F

Orlando Temperature Yesterday

Maximum temperature yesterday: 62 °F (at 2:53 pm)
Minimum temperature yesterday: 51 °F (at 6:53 am)
Average temperature yesterday: 56 °F

High & Low Weather Summary for the Past Weeks

 TemperatureHumidityPressure
High86 °F (Dec 5, 1:53 pm)100% (Nov 30, 4:53 am)30.39 "Hg (Nov 30, 4:53 am)
Low51 °F (Dec 9, 6:53 am)31% (Dec 2, 2:53 pm)29.85 "Hg (Dec 6, 12:53 pm)
Average68 °F73%30.09 "Hg
* Reported Nov 25 3:53 pm — Dec 10 3:53 pm, Orlando, Weather by CustomWeather, © 2016

Note: Actual official high and low records may vary slightly from our data, if they occured in-between our weather recording intervals... More about our weather records

Advertising

Orlando Weather History for the Previous 24 Hours

Scroll right to see more
 ConditionsComfort  
Time TempWeatherWind HumidityBarometerVisibility
3:53 pm
Sat, Dec 10
68 °FPassing clouds.14 mph57%30.31 "Hg10 mi
2:53 pm72 °FSunny.14 mph52%30.29 "Hg10 mi
1:53 pm72 °FSunny.13 mph52%30.29 "Hg10 mi
12:53 pm71 °FScattered clouds.14 mph51%30.32 "Hg10 mi
11:53 am69 °FSunny.12 mph57%30.35 "Hg10 mi
10:53 am66 °FSunny.12 mph61%30.38 "Hg10 mi
9:53 am61 °FSunny.9 mph67%30.39 "Hg10 mi
8:53 am56 °FSunny.8 mph72%30.38 "Hg10 mi
7:53 am52 °FSunny.8 mph77%30.37 "Hg10 mi
6:53 am51 °FClear.8 mph77%30.36 "Hg10 mi
5:53 am51 °FClear.8 mph77%30.35 "Hg10 mi
4:53 am51 °FClear.7 mph77%30.33 "Hg10 mi
3:53 am52 °FClear.7 mph72%30.33 "Hg10 mi
2:53 am52 °FClear.7 mph72%30.32 "Hg10 mi
1:53 am52 °FClear.6 mph69%30.33 "Hg10 mi
12:53 am52 °FClear.7 mph69%30.33 "Hg10 mi
11:53 pm
Fri, Dec 9
53 °FClear.8 mph66%30.34 "Hg10 mi
10:53 pm53 °FClear.8 mph66%30.35 "Hg10 mi
9:53 pm53 °FClear.8 mph66%30.35 "Hg10 mi
8:53 pm54 °FClear.10 mph64%30.35 "Hg10 mi
7:53 pm55 °FClear.12 mph62%30.34 "Hg10 mi
6:53 pm56 °FClear.12 mph62%30.33 "Hg10 mi
5:53 pm57 °FClear.14 mph60%30.32 "Hg10 mi
Weather by CustomWeather, © 2016

See weather overviewHow to use our weather pages